Notices

What's New in latest Release from April 7th, 2021:

- Updated Glossary, including Speed of Maximum Gust, and Total Hourly Precipitation

- Updated national and regional climate services offices contacts and prices information

- Addition of station inventory lists for 1981-2010, 1971-2000, and 1961-1990 Normals.

Please note that as of June 10, 2021 UTC dates are available for all years 2004-present, and DBA is working on populating the remaining years (2003 to 1953).

If you haven't already, please take our survey and provide feedback about our website: https://eccc.sondage-survey.ca/f/LanguageSelection.aspx?s=442ca660-fcf1-47c0-95a9-59707d6fd709

Hourly Data Report for November 19, 2019

VICTORIA UNIVERSITY CS
BRITISH COLUMBIA
Current Station Operator: ECCC - MSC

48°27'25.200" N
123°18'16.600" W
60.10 m
1018598
71783
WYJ

Download Data

Hourly Data (November 2019)
Hourly Data Report for November 19, 2019
TIME
LST
Temp Definition
°C
Dew Point Definition
°C
Rel Hum Definition
%
Precip. Amount Definition
mm

Wind Dir Definition
10's deg

Wind Spd Definition
km/h
Visibility Definition
km
Stn Press Definition
kPa
Hmdx Definition


Wind Chill Definition


Weather Definition


00:00 8.7 8.3 98 0.0 35 13   99.76     LegendNANA
01:00 8.8 8.2 96 0.0 35 8   99.81     LegendNANA
02:00 8.7 8.2 97 0.0 35 6   99.84     LegendNANA
03:00 8.3 7.6 96 0.0 31 7   99.90     LegendNANA
04:00 7.9 7.0 95 0.0 27 5   99.90     LegendNANA
05:00 7.7 7.2 97 0.0 24 4   99.96     LegendNANA
06:00 8.1 7.8 98 0.0 26 3   100.00     LegendNANA
07:00 7.7 7.4 98 0.0 26 3   100.04     LegendNANA
08:00 8.0 7.3 96 0.0 36 6   100.12     LegendNANA
09:00 8.1 6.4 89 0.0 31 6   100.20     LegendNANA
10:00 8.4 6.3 87 0.0 33 6   100.32     LegendNANA
11:00 9.2 6.1 81 0.0 36 8   100.39     LegendNANA
12:00
13:00 10.6 5.8 72 0.0 35 8   100.51     LegendNANA
14:00 11.2 5.5 68 0.2 2 6   100.60     LegendNANA
15:00 11.2 4.9 65 0.0 36 4   100.62     LegendNANA
16:00 9.4 6.0 79 0.0 12 2   100.75     LegendNANA
17:00 6.3 4.9 91 0.0 23 2   100.85     LegendNANA
18:00 6.5 5.0 90 0.0 31 4   100.94     LegendNANA
19:00 4.7 4.1 96 0.0 25 3   101.01     LegendNANA
20:00 3.9 3.2 95 0.0 29 2   101.12     LegendNANA
21:00 6.0 3.8 86 0.0 33 5   101.21     LegendNANA
22:00 6.7 3.4 80 0.0 1 5   101.27     LegendNANA
23:00 7.4 3.6 77 0.0 1 8   101.32     LegendNANA

Notes on Data Quality.

Legend

  • E = Estimated
  • M = Missing
  • NA = Not Available*
  • [empty] = Indicates an unobserved value
Date modified: